Year,Month,Day,Hour,Minute,Value (Times are PST for temperature in C)
2013,10,22,00,00,8.50
2013,10,22,00,01,8.50
2013,10,22,00,02,8.50
2013,10,22,00,03,8.50
2013,10,22,00,04,8.50
2013,10,22,00,05,8.40
2013,10,22,00,06,8.40
2013,10,22,00,07,8.40
2013,10,22,00,08,8.40
2013,10,22,00,09,8.40
2013,10,22,00,10,8.40
2013,10,22,00,11,8.40
2013,10,22,00,12,8.40
2013,10,22,00,13,8.40
2013,10,22,00,14,8.40
2013,10,22,00,15,8.40
2013,10,22,00,16,8.40
2013,10,22,00,17,8.30
2013,10,22,00,18,8.30
2013,10,22,00,19,8.30
2013,10,22,00,20,8.30
2013,10,22,00,21,8.30
2013,10,22,00,22,8.30
2013,10,22,00,23,8.30
2013,10,22,00,24,8.30
2013,10,22,00,25,8.30
2013,10,22,00,26,8.30
2013,10,22,00,27,8.30
2013,10,22,00,28,8.40
2013,10,22,00,29,8.40
2013,10,22,00,30,8.40
2013,10,22,00,31,8.40
2013,10,22,00,32,8.40
2013,10,22,00,33,8.40
2013,10,22,00,34,8.40
2013,10,22,00,35,8.40
2013,10,22,00,36,8.40
2013,10,22,00,37,8.40
2013,10,22,00,38,8.40
2013,10,22,00,39,8.40
2013,10,22,00,40,8.30
2013,10,22,00,41,8.30
2013,10,22,00,42,8.30
2013,10,22,00,43,8.30
2013,10,22,00,44,8.30
2013,10,22,00,45,8.30
2013,10,22,00,46,8.30
2013,10,22,00,47,8.20
2013,10,22,00,48,8.20
2013,10,22,00,49,8.20
2013,10,22,00,50,8.20
2013,10,22,00,51,8.20
2013,10,22,00,52,8.20
2013,10,22,00,53,8.20
2013,10,22,00,54,8.20
2013,10,22,00,55,8.20
2013,10,22,00,56,8.20
2013,10,22,00,57,8.20
2013,10,22,00,58,8.20
2013,10,22,00,59,8.20
2013,10,22,01,00,8.20
2013,10,22,01,01,8.20
2013,10,22,01,02,8.20
2013,10,22,01,03,8.20
2013,10,22,01,04,8.20
2013,10,22,01,05,8.20
2013,10,22,01,06,8.20
2013,10,22,01,07,8.20
2013,10,22,01,08,8.20
2013,10,22,01,09,8.20
2013,10,22,01,10,8.20
2013,10,22,01,11,8.30
2013,10,22,01,12,8.30
2013,10,22,01,13,8.30
2013,10,22,01,14,8.30
2013,10,22,01,15,8.30
2013,10,22,01,16,8.30
2013,10,22,01,17,8.30
2013,10,22,01,18,8.30
2013,10,22,01,19,8.30
2013,10,22,01,20,8.30
2013,10,22,01,21,8.30
2013,10,22,01,22,8.30
2013,10,22,01,23,8.30
2013,10,22,01,24,8.30
2013,10,22,01,25,8.30
2013,10,22,01,26,8.30
2013,10,22,01,27,8.30
2013,10,22,01,28,8.30
2013,10,22,01,29,8.30
2013,10,22,01,30,8.30
2013,10,22,01,31,8.30
2013,10,22,01,32,8.30
2013,10,22,01,33,8.30
2013,10,22,01,34,8.30
2013,10,22,01,35,8.30
2013,10,22,01,36,8.40
2013,10,22,01,37,8.40
2013,10,22,01,38,8.40
2013,10,22,01,39,8.40
2013,10,22,01,40,8.40
2013,10,22,01,41,8.40
2013,10,22,01,42,8.40
2013,10,22,01,43,8.50
2013,10,22,01,44,8.50
2013,10,22,01,45,8.50
2013,10,22,01,46,8.50
2013,10,22,01,47,8.50
2013,10,22,01,48,8.50
2013,10,22,01,49,8.50
2013,10,22,01,50,8.50
2013,10,22,01,51,8.60
2013,10,22,01,52,8.60
2013,10,22,01,53,8.50
2013,10,22,01,54,8.50
2013,10,22,01,55,8.50
2013,10,22,01,56,8.40
2013,10,22,01,57,8.40
2013,10,22,01,58,8.40
2013,10,22,01,59,8.40
2013,10,22,02,00,8.30
2013,10,22,02,01,8.30
2013,10,22,02,02,8.30
2013,10,22,02,03,8.30
2013,10,22,02,04,8.30
2013,10,22,02,05,8.30
2013,10,22,02,06,8.30
2013,10,22,02,07,8.30
2013,10,22,02,08,8.30
2013,10,22,02,09,8.20
2013,10,22,02,10,8.20
2013,10,22,02,11,8.20
2013,10,22,02,12,8.20
2013,10,22,02,13,8.20
2013,10,22,02,14,8.20
2013,10,22,02,15,8.20
2013,10,22,02,16,8.20
2013,10,22,02,17,8.20
2013,10,22,02,18,8.20
2013,10,22,02,19,8.20
2013,10,22,02,20,8.20
2013,10,22,02,21,8.10
2013,10,22,02,22,8.10
2013,10,22,02,23,8.10
2013,10,22,02,24,8.10
2013,10,22,02,25,8.10
2013,10,22,02,26,8.10
2013,10,22,02,27,8.00
2013,10,22,02,28,8.00
2013,10,22,02,29,8.00
2013,10,22,02,30,8.00
2013,10,22,02,31,8.00
2013,10,22,02,32,8.00
2013,10,22,02,33,8.00
2013,10,22,02,34,7.90
2013,10,22,02,35,7.90
2013,10,22,02,36,7.90
2013,10,22,02,37,7.90
2013,10,22,02,38,7.90
2013,10,22,02,39,7.90
2013,10,22,02,40,7.90
2013,10,22,02,41,7.90
2013,10,22,02,42,7.90
2013,10,22,02,43,7.90
2013,10,22,02,44,7.90
2013,10,22,02,45,7.90
2013,10,22,02,46,7.90
2013,10,22,02,47,7.90
2013,10,22,02,48,7.90
2013,10,22,02,49,7.90
2013,10,22,02,50,7.90
2013,10,22,02,51,7.90
2013,10,22,02,52,7.90
2013,10,22,02,53,7.90
2013,10,22,02,54,7.90
2013,10,22,02,55,7.80
2013,10,22,02,56,7.80
2013,10,22,02,57,7.80
2013,10,22,02,58,7.80
2013,10,22,02,59,7.80
2013,10,22,03,00,7.80
2013,10,22,03,01,7.80
2013,10,22,03,02,7.80
2013,10,22,03,03,7.80
2013,10,22,03,04,7.80
2013,10,22,03,05,7.80
2013,10,22,03,06,7.80
2013,10,22,03,07,7.70
2013,10,22,03,08,7.70
2013,10,22,03,09,7.70
2013,10,22,03,10,7.70
2013,10,22,03,11,7.70
2013,10,22,03,12,7.60
2013,10,22,03,13,7.60
2013,10,22,03,14,7.60
2013,10,22,03,15,7.50
2013,10,22,03,16,7.50
2013,10,22,03,17,7.40
2013,10,22,03,18,7.40
2013,10,22,03,19,7.40
2013,10,22,03,20,7.30
2013,10,22,03,21,7.30
2013,10,22,03,22,7.30
2013,10,22,03,23,7.30
2013,10,22,03,24,7.20
2013,10,22,03,25,7.20
2013,10,22,03,26,7.20
2013,10,22,03,27,7.20
2013,10,22,03,28,7.20
2013,10,22,03,29,7.20
2013,10,22,03,30,7.10
2013,10,22,03,31,7.10
2013,10,22,03,32,7.10
2013,10,22,03,33,7.10
2013,10,22,03,34,7.10
2013,10,22,03,35,7.10
2013,10,22,03,36,7.10
2013,10,22,03,37,7.00
2013,10,22,03,38,7.00
2013,10,22,03,39,7.00
2013,10,22,03,40,7.00
2013,10,22,03,41,7.00
2013,10,22,03,42,6.90
2013,10,22,03,43,6.90
2013,10,22,03,44,6.90
2013,10,22,03,45,6.90
2013,10,22,03,46,6.90
2013,10,22,03,47,6.90
2013,10,22,03,48,6.90
2013,10,22,03,49,6.90
2013,10,22,03,50,6.80
2013,10,22,03,51,6.80
2013,10,22,03,52,6.80
2013,10,22,03,53,6.80
2013,10,22,03,54,6.80
2013,10,22,03,55,6.80
2013,10,22,03,56,6.80
2013,10,22,03,57,6.80
2013,10,22,03,58,6.80
2013,10,22,03,59,6.80
2013,10,22,04,00,6.80
2013,10,22,04,01,6.80
2013,10,22,04,02,6.80
2013,10,22,04,03,6.80
2013,10,22,04,04,6.80
2013,10,22,04,05,6.80
2013,10,22,04,06,6.90
2013,10,22,04,07,6.90
2013,10,22,04,08,6.90
2013,10,22,04,09,6.90
2013,10,22,04,10,6.90
2013,10,22,04,11,6.90
2013,10,22,04,12,6.90
2013,10,22,04,13,6.90
2013,10,22,04,14,6.90
2013,10,22,04,15,6.90
2013,10,22,04,16,6.90
2013,10,22,04,17,6.90
2013,10,22,04,18,6.90
2013,10,22,04,19,6.90
2013,10,22,04,20,6.80
2013,10,22,04,21,6.80
2013,10,22,04,22,6.80
2013,10,22,04,23,6.80
2013,10,22,04,24,6.80
2013,10,22,04,25,6.80
2013,10,22,04,26,6.80
2013,10,22,04,27,6.80
2013,10,22,04,28,6.80
2013,10,22,04,29,6.80
2013,10,22,04,30,6.80
2013,10,22,04,31,6.80
2013,10,22,04,32,6.80
2013,10,22,04,33,6.80
2013,10,22,04,34,6.80
2013,10,22,04,35,6.80
2013,10,22,04,36,6.80
2013,10,22,04,37,6.80
2013,10,22,04,38,6.80
2013,10,22,04,39,6.80
2013,10,22,04,40,6.80
2013,10,22,04,41,6.80
2013,10,22,04,42,6.80
2013,10,22,04,43,6.80
2013,10,22,04,44,6.80
2013,10,22,04,45,6.80
2013,10,22,04,46,6.80
2013,10,22,04,47,6.80
2013,10,22,04,48,6.80
2013,10,22,04,49,6.80
2013,10,22,04,50,6.80
2013,10,22,04,51,6.80
2013,10,22,04,52,6.80
2013,10,22,04,53,6.80
2013,10,22,04,54,6.80
2013,10,22,04,55,6.80
2013,10,22,04,56,6.80
2013,10,22,04,57,6.80
2013,10,22,04,58,6.80
2013,10,22,04,59,6.80
2013,10,22,05,00,6.70
2013,10,22,05,01,6.70
2013,10,22,05,02,6.70
2013,10,22,05,03,6.70
2013,10,22,05,04,6.70
2013,10,22,05,05,6.70
2013,10,22,05,06,6.70
2013,10,22,05,07,6.70
2013,10,22,05,08,6.70
2013,10,22,05,09,6.70
2013,10,22,05,10,6.70
2013,10,22,05,11,6.70
2013,10,22,05,12,6.70
2013,10,22,05,13,6.70
2013,10,22,05,14,6.70
2013,10,22,05,15,6.70
2013,10,22,05,16,6.70
2013,10,22,05,17,6.70
2013,10,22,05,18,6.70
2013,10,22,05,19,6.70
2013,10,22,05,20,6.70
2013,10,22,05,21,6.70
2013,10,22,05,22,6.60
2013,10,22,05,23,6.60
2013,10,22,05,24,6.60
2013,10,22,05,25,6.60
2013,10,22,05,26,6.60
2013,10,22,05,27,6.60
2013,10,22,05,28,6.60
2013,10,22,05,29,6.60
2013,10,22,05,30,6.60
2013,10,22,05,31,6.60
2013,10,22,05,32,6.60
2013,10,22,05,33,6.60
2013,10,22,05,34,6.60
2013,10,22,05,35,6.60
2013,10,22,05,36,6.60
2013,10,22,05,37,6.60
2013,10,22,05,38,6.60
2013,10,22,05,39,6.50
2013,10,22,05,40,6.50
2013,10,22,05,41,6.50
2013,10,22,05,42,6.50
2013,10,22,05,43,6.50
2013,10,22,05,44,6.50
2013,10,22,05,45,6.50
2013,10,22,05,46,6.50
2013,10,22,05,47,6.50
2013,10,22,05,48,6.50
2013,10,22,05,49,6.50
2013,10,22,05,50,6.50
2013,10,22,05,51,6.50
2013,10,22,05,52,6.60
2013,10,22,05,53,6.60
2013,10,22,05,54,6.60
2013,10,22,05,55,6.60
2013,10,22,05,56,6.60
2013,10,22,05,57,6.60
2013,10,22,05,58,6.70
2013,10,22,05,59,6.70
2013,10,22,06,00,6.70
2013,10,22,06,01,6.70
2013,10,22,06,02,6.70
2013,10,22,06,03,6.80
2013,10,22,06,04,6.80
2013,10,22,06,05,6.80
2013,10,22,06,06,6.80
2013,10,22,06,07,6.90
2013,10,22,06,08,6.90
2013,10,22,06,09,6.90
2013,10,22,06,10,6.90
2013,10,22,06,11,6.90
2013,10,22,06,12,7.00
2013,10,22,06,13,7.00
2013,10,22,06,14,7.00
2013,10,22,06,15,7.00
2013,10,22,06,16,7.00
2013,10,22,06,17,7.00
2013,10,22,06,18,7.00
2013,10,22,06,19,7.00
2013,10,22,06,20,7.00
2013,10,22,06,21,7.00
2013,10,22,06,22,7.00
2013,10,22,06,23,7.00
2013,10,22,06,24,7.00
2013,10,22,06,25,7.00
2013,10,22,06,26,7.00
2013,10,22,06,27,7.00
2013,10,22,06,28,7.00
2013,10,22,06,29,7.00
2013,10,22,06,30,7.00
2013,10,22,06,31,7.00
2013,10,22,06,32,7.00
2013,10,22,06,33,7.00
2013,10,22,06,34,6.90
2013,10,22,06,35,6.90
2013,10,22,06,36,6.90
2013,10,22,06,37,6.90
2013,10,22,06,38,6.90
2013,10,22,06,39,6.90
2013,10,22,06,40,6.90
2013,10,22,06,41,6.80
2013,10,22,06,42,6.80
2013,10,22,06,43,6.80
2013,10,22,06,44,6.80
2013,10,22,06,45,6.80
2013,10,22,06,46,6.80
2013,10,22,06,47,6.80
2013,10,22,06,48,6.80
2013,10,22,06,49,6.70
2013,10,22,06,50,6.70
2013,10,22,06,51,6.70
2013,10,22,06,52,6.70
2013,10,22,06,53,6.70
2013,10,22,06,54,6.70
2013,10,22,06,55,6.70
2013,10,22,06,56,6.70
2013,10,22,06,57,6.70
2013,10,22,06,58,6.70
2013,10,22,06,59,6.70
2013,10,22,07,00,6.70
2013,10,22,07,01,6.70
2013,10,22,07,02,6.70
2013,10,22,07,03,6.70
2013,10,22,07,04,6.70
2013,10,22,07,05,6.70
2013,10,22,07,06,6.70
2013,10,22,07,07,6.70
2013,10,22,07,08,6.70
2013,10,22,07,09,6.70
2013,10,22,07,10,6.70
2013,10,22,07,11,6.70
2013,10,22,07,12,6.70
2013,10,22,07,13,6.70
2013,10,22,07,14,6.70
2013,10,22,07,15,6.70
2013,10,22,07,16,6.80
2013,10,22,07,17,6.80
2013,10,22,07,18,6.80
2013,10,22,07,19,6.80
2013,10,22,07,20,6.80
2013,10,22,07,21,6.80
2013,10,22,07,22,6.90
2013,10,22,07,23,6.90
2013,10,22,07,24,6.90
2013,10,22,07,25,6.90
2013,10,22,07,26,6.90
2013,10,22,07,27,6.90
2013,10,22,07,28,6.90
2013,10,22,07,29,6.90
2013,10,22,07,30,6.90
2013,10,22,07,31,6.90
2013,10,22,07,32,6.90
2013,10,22,07,33,6.80
2013,10,22,07,34,6.80
2013,10,22,07,35,6.80
2013,10,22,07,36,6.80
2013,10,22,07,37,6.80
2013,10,22,07,38,6.70
2013,10,22,07,39,6.70
2013,10,22,07,40,6.70
2013,10,22,07,41,6.70
2013,10,22,07,42,6.70
2013,10,22,07,43,6.70
2013,10,22,07,44,6.70
2013,10,22,07,45,6.70
2013,10,22,07,46,6.70
2013,10,22,07,47,6.70
2013,10,22,07,48,6.70
2013,10,22,07,49,6.80
2013,10,22,07,50,6.80
2013,10,22,07,51,6.80
2013,10,22,07,52,6.80
2013,10,22,07,53,6.80
2013,10,22,07,54,6.70
2013,10,22,07,55,6.70
2013,10,22,07,56,6.70
2013,10,22,07,57,6.70
2013,10,22,07,58,6.60
2013,10,22,07,59,6.60
2013,10,22,08,00,6.60
2013,10,22,08,01,6.60
2013,10,22,08,02,6.60
2013,10,22,08,03,6.60
2013,10,22,08,04,6.60
2013,10,22,08,05,6.60
2013,10,22,08,06,6.60
2013,10,22,08,07,6.50
2013,10,22,08,08,6.50
2013,10,22,08,09,6.50
2013,10,22,08,10,6.50
2013,10,22,08,11,6.50
2013,10,22,08,12,6.50
2013,10,22,08,13,6.50
2013,10,22,08,14,6.50
2013,10,22,08,15,6.50
2013,10,22,08,16,6.50
2013,10,22,08,17,6.60
2013,10,22,08,18,6.60
2013,10,22,08,19,6.60
2013,10,22,08,20,6.60
2013,10,22,08,21,6.60
2013,10,22,08,22,6.60
2013,10,22,08,23,6.60
2013,10,22,08,24,6.60
2013,10,22,08,25,6.60
2013,10,22,08,26,6.50
2013,10,22,08,27,6.50
2013,10,22,08,28,6.40
2013,10,22,08,29,6.40
2013,10,22,08,30,6.40
2013,10,22,08,31,6.40
2013,10,22,08,32,6.40
2013,10,22,08,33,6.30
2013,10,22,08,34,6.30
2013,10,22,08,35,6.30
2013,10,22,08,36,6.30
2013,10,22,08,37,6.40
2013,10,22,08,38,6.50
2013,10,22,08,39,6.60
2013,10,22,08,40,6.70
2013,10,22,08,41,6.80
2013,10,22,08,42,6.90
2013,10,22,08,43,7.10
2013,10,22,08,44,7.20
2013,10,22,08,45,7.20
2013,10,22,08,46,7.30
2013,10,22,08,47,7.30
2013,10,22,08,48,7.30
2013,10,22,08,49,7.40
2013,10,22,08,50,7.40
2013,10,22,08,51,7.40
2013,10,22,08,52,7.50
2013,10,22,08,53,7.60
2013,10,22,08,54,7.60
2013,10,22,08,55,7.60
2013,10,22,08,56,7.60
2013,10,22,08,57,7.60
2013,10,22,08,58,7.60
2013,10,22,08,59,7.70
2013,10,22,09,00,7.70
2013,10,22,09,01,7.70
2013,10,22,09,02,7.80
2013,10,22,09,03,7.80
2013,10,22,09,04,7.80
2013,10,22,09,05,7.90
2013,10,22,09,06,7.90
2013,10,22,09,07,8.00
2013,10,22,09,08,8.10
2013,10,22,09,09,8.10
2013,10,22,09,10,8.20
2013,10,22,09,11,8.30
2013,10,22,09,12,8.30
2013,10,22,09,13,8.40
2013,10,22,09,14,8.40
2013,10,22,09,15,8.40
2013,10,22,09,16,8.50
2013,10,22,09,17,8.50
2013,10,22,09,18,8.50
2013,10,22,09,19,8.60
2013,10,22,09,20,8.60
2013,10,22,09,21,8.70
2013,10,22,09,22,8.70
2013,10,22,09,23,8.70
2013,10,22,09,24,8.80
2013,10,22,09,25,8.80
2013,10,22,09,26,8.80
2013,10,22,09,27,8.80
2013,10,22,09,28,8.90
2013,10,22,09,29,8.90
2013,10,22,09,30,9.00
2013,10,22,09,31,9.10
2013,10,22,09,32,9.10
2013,10,22,09,33,9.10
2013,10,22,09,34,9.00
2013,10,22,09,35,9.00
2013,10,22,09,36,9.00
2013,10,22,09,37,9.00
2013,10,22,09,38,9.00
2013,10,22,09,39,9.00
2013,10,22,09,40,9.10
2013,10,22,09,41,9.10
2013,10,22,09,42,9.10
2013,10,22,09,43,9.20
2013,10,22,09,44,9.20
2013,10,22,09,45,9.20
2013,10,22,09,46,9.30
2013,10,22,09,47,9.30
2013,10,22,09,48,9.40
2013,10,22,09,49,9.50
2013,10,22,09,50,9.60
2013,10,22,09,51,9.70
2013,10,22,09,52,9.80
2013,10,22,09,53,9.80
2013,10,22,09,54,9.80
2013,10,22,09,55,9.80
2013,10,22,09,56,9.80
2013,10,22,09,57,9.80
2013,10,22,09,58,9.80
2013,10,22,09,59,9.80
2013,10,22,10,00,9.80
2013,10,22,10,01,9.80
2013,10,22,10,02,9.80
2013,10,22,10,03,9.80
2013,10,22,10,04,9.80
2013,10,22,10,05,9.80
2013,10,22,10,06,9.80
2013,10,22,10,07,9.70
2013,10,22,10,08,9.70
2013,10,22,10,09,9.70
2013,10,22,10,10,9.70
2013,10,22,10,11,9.70
2013,10,22,10,12,9.70
2013,10,22,10,13,9.70
2013,10,22,10,14,9.70
2013,10,22,10,15,9.70
2013,10,22,10,16,9.70
2013,10,22,10,17,9.70
2013,10,22,10,18,9.70
2013,10,22,10,19,9.70
2013,10,22,10,20,9.70
2013,10,22,10,21,9.70
2013,10,22,10,22,9.70
2013,10,22,10,23,9.70
2013,10,22,10,24,9.70
2013,10,22,10,25,9.70
2013,10,22,10,26,9.70
2013,10,22,10,27,9.80
2013,10,22,10,28,9.80
2013,10,22,10,29,9.80
2013,10,22,10,30,9.80
2013,10,22,10,31,9.80
2013,10,22,10,32,9.90
2013,10,22,10,33,9.90
2013,10,22,10,34,9.90
2013,10,22,10,35,9.90
2013,10,22,10,36,10.00
2013,10,22,10,37,10.00
2013,10,22,10,38,10.00
2013,10,22,10,39,10.00
2013,10,22,10,40,10.00
2013,10,22,10,41,10.10
2013,10,22,10,42,10.10
2013,10,22,10,43,10.10
2013,10,22,10,44,10.10
2013,10,22,10,45,10.00
2013,10,22,10,46,10.00
2013,10,22,10,47,10.00
2013,10,22,10,48,10.10
2013,10,22,10,49,10.10
2013,10,22,10,50,10.10
2013,10,22,10,51,10.10
2013,10,22,10,52,10.20
2013,10,22,10,53,10.20
2013,10,22,10,54,10.20
2013,10,22,10,55,10.30
2013,10,22,10,56,10.30
2013,10,22,10,57,10.30
2013,10,22,10,58,10.40
2013,10,22,10,59,10.40
2013,10,22,11,00,10.40
2013,10,22,11,01,10.50
2013,10,22,11,02,10.50
2013,10,22,11,03,10.60
2013,10,22,11,04,10.60
2013,10,22,11,05,10.60
2013,10,22,11,06,10.70
2013,10,22,11,07,10.70
2013,10,22,11,08,10.80
2013,10,22,11,09,10.80
2013,10,22,11,10,10.80
2013,10,22,11,11,10.90
2013,10,22,11,12,10.90
2013,10,22,11,13,10.90
2013,10,22,11,14,11.00
2013,10,22,11,15,11.00
2013,10,22,11,16,11.10
2013,10,22,11,17,11.10
2013,10,22,11,18,11.20
2013,10,22,11,19,11.20
2013,10,22,11,20,11.20
2013,10,22,11,21,11.20
2013,10,22,11,22,11.30
2013,10,22,11,23,11.30
2013,10,22,11,24,11.30
2013,10,22,11,25,11.30
2013,10,22,11,26,11.40
2013,10,22,11,27,11.40
2013,10,22,11,28,11.50
2013,10,22,11,29,11.50
2013,10,22,11,30,11.60
2013,10,22,11,31,11.60
2013,10,22,11,32,11.60
2013,10,22,11,33,11.60
2013,10,22,11,34,11.70
2013,10,22,11,35,11.70
2013,10,22,11,36,11.70
2013,10,22,11,37,11.70
2013,10,22,11,38,11.70
2013,10,22,11,39,11.70
2013,10,22,11,40,11.70
2013,10,22,11,41,11.80
2013,10,22,11,42,11.80
2013,10,22,11,43,11.80
2013,10,22,11,44,11.80
2013,10,22,11,45,11.80
2013,10,22,11,46,11.80
2013,10,22,11,47,11.80
2013,10,22,11,48,11.80
2013,10,22,11,49,11.80
2013,10,22,11,50,11.80
2013,10,22,11,51,11.90
2013,10,22,11,52,11.90
2013,10,22,11,53,11.90
2013,10,22,11,54,11.90
2013,10,22,11,55,12.00
2013,10,22,11,56,12.00
2013,10,22,11,57,12.10
2013,10,22,11,58,12.10
2013,10,22,11,59,12.20
2013,10,22,12,00,12.20
2013,10,22,12,01,12.30
2013,10,22,12,02,12.30
2013,10,22,12,03,12.30
2013,10,22,12,04,12.40
2013,10,22,12,05,12.40
2013,10,22,12,06,12.40
2013,10,22,12,07,12.50
2013,10,22,12,08,12.60
2013,10,22,12,09,12.60
2013,10,22,12,10,12.60
2013,10,22,12,11,12.70
2013,10,22,12,12,12.70
2013,10,22,12,13,12.80
2013,10,22,12,14,12.80
2013,10,22,12,15,12.80
2013,10,22,12,16,12.90
2013,10,22,12,17,13.00
2013,10,22,12,18,13.00
2013,10,22,12,19,13.10
2013,10,22,12,20,13.10
2013,10,22,12,21,13.20
2013,10,22,12,22,13.20
2013,10,22,12,23,13.30
2013,10,22,12,24,13.30
2013,10,22,12,25,13.30
2013,10,22,12,26,13.40
2013,10,22,12,27,13.40
2013,10,22,12,28,13.40
2013,10,22,12,29,13.40
2013,10,22,12,30,13.50
2013,10,22,12,31,13.50
2013,10,22,12,32,13.60
2013,10,22,12,33,13.60
2013,10,22,12,34,13.60
2013,10,22,12,35,13.60
2013,10,22,12,36,13.60
2013,10,22,12,37,13.60
2013,10,22,12,38,13.70
2013,10,22,12,39,13.70
2013,10,22,12,40,13.70
2013,10,22,12,41,13.80
2013,10,22,12,42,13.80
2013,10,22,12,43,13.80
2013,10,22,12,44,13.90
2013,10,22,12,45,13.90
2013,10,22,12,46,14.00
2013,10,22,12,47,14.10
2013,10,22,12,48,14.20
2013,10,22,12,49,14.20
2013,10,22,12,50,14.30
2013,10,22,12,51,14.40
2013,10,22,12,52,14.50
2013,10,22,12,53,14.50
2013,10,22,12,54,14.50
2013,10,22,12,55,14.60
2013,10,22,12,56,14.60
2013,10,22,12,57,14.60
2013,10,22,12,58,14.60
2013,10,22,12,59,14.60
2013,10,22,13,00,14.60
2013,10,22,13,01,14.60
2013,10,22,13,02,14.70
2013,10,22,13,03,14.70
2013,10,22,13,04,14.80
2013,10,22,13,05,14.80
2013,10,22,13,06,14.80
2013,10,22,13,07,14.90
2013,10,22,13,08,14.90
2013,10,22,13,09,14.90
2013,10,22,13,10,15.00
2013,10,22,13,11,15.00
2013,10,22,13,12,15.10
2013,10,22,13,13,15.20
2013,10,22,13,14,15.20
2013,10,22,13,15,15.20
2013,10,22,13,16,15.30
2013,10,22,13,17,15.30
2013,10,22,13,18,15.40
2013,10,22,13,19,15.40
2013,10,22,13,20,15.40
2013,10,22,13,21,15.50
2013,10,22,13,22,15.50
2013,10,22,13,23,15.60
2013,10,22,13,24,15.60
2013,10,22,13,25,15.70
2013,10,22,13,26,15.70
2013,10,22,13,27,15.70
2013,10,22,13,28,15.70
2013,10,22,13,29,15.80
2013,10,22,13,30,15.80
2013,10,22,13,31,15.80
2013,10,22,13,32,15.80
2013,10,22,13,33,15.80
2013,10,22,13,34,15.80
2013,10,22,13,35,15.80
2013,10,22,13,36,15.80
2013,10,22,13,37,15.80
2013,10,22,13,38,15.90
2013,10,22,13,39,15.90
2013,10,22,13,40,16.00
2013,10,22,13,41,16.00
2013,10,22,13,42,16.00
2013,10,22,13,43,16.10
2013,10,22,13,44,16.10
2013,10,22,13,45,16.20
2013,10,22,13,46,16.20
2013,10,22,13,47,16.20
2013,10,22,13,48,16.20
2013,10,22,13,49,16.20
2013,10,22,13,50,16.20
2013,10,22,13,51,16.20
2013,10,22,13,52,16.20
2013,10,22,13,53,16.20
2013,10,22,13,54,16.20
2013,10,22,13,55,16.20
2013,10,22,13,56,16.20
2013,10,22,13,57,16.20
2013,10,22,13,58,16.20
2013,10,22,13,59,16.20
2013,10,22,14,00,16.20
2013,10,22,14,01,16.20
2013,10,22,14,02,16.20
2013,10,22,14,03,16.20
2013,10,22,14,04,16.20
2013,10,22,14,05,16.20
2013,10,22,14,06,16.20
2013,10,22,14,07,16.20
2013,10,22,14,08,16.20
2013,10,22,14,09,16.20
2013,10,22,14,10,16.20
2013,10,22,14,11,16.20
2013,10,22,14,12,16.20
2013,10,22,14,13,16.20
2013,10,22,14,14,16.20
2013,10,22,14,15,16.20
2013,10,22,14,16,16.20
2013,10,22,14,17,16.20
2013,10,22,14,18,16.20
2013,10,22,14,19,16.10
2013,10,22,14,20,16.10
2013,10,22,14,21,16.10
2013,10,22,14,22,16.20
2013,10,22,14,23,16.20
2013,10,22,14,24,16.20
2013,10,22,14,25,16.20
2013,10,22,14,26,16.20
2013,10,22,14,27,16.20
2013,10,22,14,28,16.20
2013,10,22,14,29,16.20
2013,10,22,14,30,16.20
2013,10,22,14,31,16.20
2013,10,22,14,32,16.20
2013,10,22,14,33,16.20
2013,10,22,14,34,16.10
2013,10,22,14,35,16.20
2013,10,22,14,36,16.20
2013,10,22,14,37,16.20
2013,10,22,14,38,16.30
2013,10,22,14,39,16.40
2013,10,22,14,40,16.40
2013,10,22,14,41,16.40
2013,10,22,14,42,16.40
2013,10,22,14,43,16.40
2013,10,22,14,44,16.40
2013,10,22,14,45,16.40
2013,10,22,14,46,16.30
2013,10,22,14,47,16.30
2013,10,22,14,48,16.20
2013,10,22,14,49,16.20
2013,10,22,14,50,16.10
2013,10,22,14,51,16.10
2013,10,22,14,52,16.00
2013,10,22,14,53,16.00
2013,10,22,14,54,16.00
2013,10,22,14,55,16.00
2013,10,22,14,56,16.00
2013,10,22,14,57,16.10
2013,10,22,14,58,16.10
2013,10,22,14,59,16.10
2013,10,22,15,00,16.10
2013,10,22,15,01,16.10
2013,10,22,15,02,16.00
2013,10,22,15,03,16.00
2013,10,22,15,04,16.00
2013,10,22,15,05,16.00
2013,10,22,15,06,16.10
2013,10,22,15,07,16.10
2013,10,22,15,08,16.10
2013,10,22,15,09,16.10
2013,10,22,15,10,16.10
2013,10,22,15,11,16.10
2013,10,22,15,12,16.00
2013,10,22,15,13,16.00
2013,10,22,15,14,15.90
2013,10,22,15,15,15.90
2013,10,22,15,16,15.80
2013,10,22,15,17,15.80
2013,10,22,15,18,15.80
2013,10,22,15,19,15.80
2013,10,22,15,20,15.80
2013,10,22,15,21,15.80
2013,10,22,15,22,15.90
2013,10,22,15,23,15.90
2013,10,22,15,24,15.90
2013,10,22,15,25,15.90
2013,10,22,15,26,16.00
2013,10,22,15,27,16.00
2013,10,22,15,28,16.00
2013,10,22,15,29,16.00
2013,10,22,15,30,16.10
2013,10,22,15,31,16.00
2013,10,22,15,32,16.00
2013,10,22,15,33,16.00
2013,10,22,15,34,16.00
2013,10,22,15,35,16.00
2013,10,22,15,36,16.00
2013,10,22,15,37,16.00
2013,10,22,15,38,16.00
2013,10,22,15,39,16.00
2013,10,22,15,40,16.00
2013,10,22,15,41,16.00
2013,10,22,15,42,16.00
2013,10,22,15,43,16.10
2013,10,22,15,44,16.10
2013,10,22,15,45,16.20
2013,10,22,15,46,16.20
2013,10,22,15,47,16.10
2013,10,22,15,48,16.10
2013,10,22,15,49,16.00
2013,10,22,15,50,16.00
2013,10,22,15,51,15.90
2013,10,22,15,52,15.80
2013,10,22,15,53,15.80
2013,10,22,15,54,15.70
2013,10,22,15,55,15.70
2013,10,22,15,56,15.70
2013,10,22,15,57,15.70
2013,10,22,15,58,15.80
2013,10,22,15,59,15.70
2013,10,22,16,00,15.70
2013,10,22,16,01,15.70
2013,10,22,16,02,15.60
2013,10,22,16,03,15.60
2013,10,22,16,04,15.50
2013,10,22,16,05,15.50
2013,10,22,16,06,15.50
2013,10,22,16,07,15.50
2013,10,22,16,08,15.50
2013,10,22,16,09,15.50
2013,10,22,16,10,15.50
2013,10,22,16,11,15.60
2013,10,22,16,12,15.60
2013,10,22,16,13,15.70
2013,10,22,16,14,15.70
2013,10,22,16,15,15.70
2013,10,22,16,16,15.70
2013,10,22,16,17,15.70
2013,10,22,16,18,15.70
2013,10,22,16,19,15.70
2013,10,22,16,20,15.70
2013,10,22,16,21,15.70
2013,10,22,16,22,15.70
2013,10,22,16,23,15.70
2013,10,22,16,24,15.70
2013,10,22,16,25,15.70
2013,10,22,16,26,15.70
2013,10,22,16,27,15.70
2013,10,22,16,28,15.80
2013,10,22,16,29,15.80
2013,10,22,16,30,15.80
2013,10,22,16,31,15.80
2013,10,22,16,32,15.80
2013,10,22,16,33,15.90
2013,10,22,16,34,15.90
2013,10,22,16,35,15.90
2013,10,22,16,36,15.90
2013,10,22,16,37,15.90
2013,10,22,16,38,15.90
2013,10,22,16,39,15.90
2013,10,22,16,40,15.90
2013,10,22,16,41,15.90
2013,10,22,16,42,15.80
2013,10,22,16,43,15.80
2013,10,22,16,44,15.80
2013,10,22,16,45,15.80
2013,10,22,16,46,15.80
2013,10,22,16,47,15.80
2013,10,22,16,48,15.80
2013,10,22,16,49,15.80
2013,10,22,16,50,15.80
2013,10,22,16,51,15.80
2013,10,22,16,52,15.80
2013,10,22,16,53,15.80
2013,10,22,16,54,15.80
2013,10,22,16,55,15.80
2013,10,22,16,56,15.80
2013,10,22,16,57,15.90
2013,10,22,16,58,15.90
2013,10,22,16,59,15.80
2013,10,22,17,00,15.80
2013,10,22,17,01,15.80
2013,10,22,17,02,15.80
2013,10,22,17,03,15.80
2013,10,22,17,04,15.80
2013,10,22,17,05,15.80
2013,10,22,17,06,15.90
2013,10,22,17,07,15.90
2013,10,22,17,08,15.90
2013,10,22,17,09,15.90
2013,10,22,17,10,15.90
2013,10,22,17,11,15.90
2013,10,22,17,12,15.80
2013,10,22,17,13,15.80
2013,10,22,17,14,15.80
2013,10,22,17,15,15.80
2013,10,22,17,16,15.80
2013,10,22,17,17,15.80
2013,10,22,17,18,15.80
2013,10,22,17,19,15.80
2013,10,22,17,20,15.80
2013,10,22,17,21,15.90
2013,10,22,17,22,15.90
2013,10,22,17,23,15.90
2013,10,22,17,24,15.90
2013,10,22,17,25,15.90
2013,10,22,17,26,15.90
2013,10,22,17,27,15.80
2013,10,22,17,28,15.80
2013,10,22,17,29,15.80
2013,10,22,17,30,15.80
2013,10,22,17,31,15.80
2013,10,22,17,32,15.80
2013,10,22,17,33,15.80
2013,10,22,17,34,15.80
2013,10,22,17,35,15.80
2013,10,22,17,36,15.70
2013,10,22,17,37,15.70
2013,10,22,17,38,15.70
2013,10,22,17,39,15.60
2013,10,22,17,40,15.60
2013,10,22,17,41,15.50
2013,10,22,17,42,15.50
2013,10,22,17,43,15.40
2013,10,22,17,44,15.20
2013,10,22,17,45,15.10
2013,10,22,17,46,15.00
2013,10,22,17,47,14.90